QPF
0.00 0.00 0.00 0.00 0.00 0.00 0.01 0.04 0.08 0.11 0.12 0.15 0.12 0.12 0.12 0.10 0.08 0.06 0.04 0.05 0.06 0.09 0.13 0.13 0.19 0.19 0.19 0.19 0.20 0.22 0.22 0.21 0.23 0.22 0.17 0.10 0.05 0.04 0.03 0.02 0.01 0.01 0.03
0.00 0.00 0.00 0.00 0.00 0.01 0.03 0.05 0.12 0.16 0.16 0.17 0.18 0.18 0.20 0.15 0.12 0.09 0.09 0.09 0.12 0.14 0.15 0.17 0.19 0.20 0.19 0.18 0.21 0.26 0.27 0.26 0.32 0.32 0.29 0.19 0.12 0.11 0.09 0.06 0.04 0.02 0.02
0.00 0.00 0.01 0.01 0.01 0.02 0.04 0.06 0.11 0.14 0.17 0.19 0.20 0.18 0.21 0.13 0.14 0.14 0.16 0.15 0.18 0.18 0.18 0.20 0.20 0.20 0.19 0.19 0.20 0.23 0.27 0.27 0.31 0.32 0.31 0.27 0.24 0.19 0.13 0.11 0.09 0.08 0.05
0.01 0.01 0.01 0.01 0.02 0.03 0.04 0.06 0.09 0.12 0.16 0.17 0.18 0.16 0.17 0.15 0.18 0.23 0.22 0.19 0.17 0.16 0.16 0.16 0.17 0.18 0.18 0.21 0.20 0.21 0.25 0.28 0.29 0.32 0.30 0.29 0.25 0.19 0.12 0.07 0.07 0.08 0.07
0.03 0.01 0.00 0.01 0.01 0.01 0.02 0.04 0.06 0.08 0.10 0.14 0.15 0.16 0.16 0.18 0.20 0.24 0.27 0.24 0.18 0.16 0.13 0.14 0.16 0.17 0.18 0.20 0.23 0.26 0.30 0.33 0.35 0.36 0.36 0.33 0.28 0.22 0.17 0.12 0.12 0.11 0.07
0.01 0.00 0.00 0.00 0.00 0.00 0.01 0.02 0.04 0.05 0.07 0.09 0.11 0.12 0.11 0.14 0.16 0.17 0.21 0.21 0.22 0.20 0.18 0.19 0.20 0.19 0.21 0.24 0.27 0.29 0.30 0.35 0.37 0.37 0.36 0.32 0.29 0.26 0.23 0.16 0.14 0.14 0.07
0.00 0.00 0.00 0.00 0.00 0.00 0.01 0.02 0.03 0.05 0.06 0.06 0.08 0.09 0.10 0.12 0.12 0.15 0.17 0.17 0.18 0.18 0.17 0.17 0.19 0.20 0.21 0.23 0.26 0.28 0.30 0.34 0.35 0.33 0.31 0.29 0.26 0.23 0.18 0.13 0.10 0.09 0.05
0.00 0.00 0.00 0.00 0.00 0.01 0.01 0.01 0.03 0.04 0.04 0.05 0.06 0.07 0.07 0.09 0.10 0.12 0.14 0.14 0.13 0.15 0.17 0.16 0.17 0.17 0.21 0.23 0.27 0.31 0.32 0.34 0.34 0.31 0.28 0.24 0.19 0.15 0.12 0.09 0.07 0.05 0.04
0.00 0.00 0.00 0.00 0.00 0.01 0.01 0.01 0.03 0.04 0.04 0.06 0.07 0.07 0.07 0.08 0.09 0.10 0.12 0.12 0.12 0.13 0.14 0.14 0.19 0.20 0.21 0.23 0.26 0.29 0.31 0.32 0.30 0.27 0.22 0.19 0.15 0.10 0.07 0.05 0.04 0.02 0.02
0.00 0.00 0.00 0.00 0.00 0.01 0.01 0.02 0.02 0.03 0.04 0.05 0.06 0.06 0.07 0.07 0.09 0.12 0.13 0.13 0.12 0.13 0.15 0.16 0.19 0.22 0.23 0.25 0.27 0.29 0.31 0.30 0.26 0.22 0.19 0.15 0.10 0.06 0.04 0.03 0.03 0.02 0.02
0.00 0.00 0.00 0.00 0.00 0.01 0.01 0.02 0.02 0.04 0.05 0.05 0.05 0.06 0.07 0.08 0.10 0.11 0.12 0.15 0.18 0.19 0.22 0.23 0.24 0.24 0.25 0.26 0.25 0.24 0.22 0.20 0.18 0.15 0.12 0.09 0.05 0.04 0.03 0.02 0.02 0.02 0.01
0.00 0.00 0.00 0.00 0.00 0.01 0.02 0.02 0.03 0.04 0.06 0.07 0.06 0.07 0.09 0.10 0.11 0.12 0.12 0.16 0.23 0.26 0.29 0.31 0.29 0.27 0.26 0.25 0.22 0.20 0.17 0.15 0.13 0.10 0.08 0.06 0.04 0.03 0.02 0.02 0.02 0.02 0.02
0.00 0.00 0.00 0.01 0.01 0.02 0.02 0.03 0.04 0.05 0.06 0.06 0.07 0.09 0.11 0.12 0.12 0.13 0.13 0.14 0.19 0.23 0.27 0.30 0.31 0.29 0.27 0.25 0.22 0.18 0.15 0.11 0.09 0.07 0.05 0.03 0.02 0.02 0.02 0.01 0.01 0.01 0.01
0.00 0.00 0.00 0.01 0.01 0.02 0.03 0.05 0.06 0.07 0.08 0.07 0.09 0.10 0.13 0.13 0.13 0.13 0.13 0.13 0.14 0.17 0.19 0.21 0.23 0.21 0.20 0.20 0.17 0.13 0.11 0.10 0.07 0.04 0.03 0.02 0.01 0.00 0.00 0.00 0.00 0.00 0.00
0.00 0.00 0.01 0.02 0.03 0.03 0.06 0.07 0.08 0.09 0.11 0.12 0.11 0.10 0.12 0.12 0.10 0.10 0.11 0.12 0.11 0.12 0.13 0.14 0.15 0.15 0.14 0.12 0.10 0.08 0.07 0.06 0.04 0.02 0.01 0.00 0.00 0.00 0.00 0.00 0.00 0.00 0.00
0.00 0.00 0.01 0.02 0.04 0.05 0.07 0.12 0.11 0.10 0.13 0.15 0.11 0.09 0.10 0.10 0.09 0.08 0.08 0.09 0.09 0.10 0.11 0.13 0.11 0.09 0.08 0.07 0.06 0.05 0.04 0.02 0.01 0.01 0.00 0.00 0.00 0.00 0.00 0.00 0.00 0.00 0.00
0.00 0.01 0.02 0.05 0.05 0.07 0.12 0.16 0.14 0.11 0.13 0.14 0.11 0.09 0.09 0.09 0.09 0.09 0.10 0.10 0.10 0.10 0.10 0.11 0.08 0.04 0.03 0.03 0.02 0.02 0.02 0.01 0.01 0.01 0.00 0.00 0.00 0.00 0.00 0.00 0.00 0.00 0.00
0.01 0.00 0.01 0.03 0.04 0.05 0.09 0.13 0.13 0.12 0.13 0.14 0.12 0.09 0.08 0.08 0.08 0.08 0.08 0.09 0.10 0.09 0.08 0.08 0.06 0.03 0.01 0.01 0.01 0.01 0.02 0.02 0.01 0.00 0.00 0.00 0.00 0.00 0.00 0.00 0.01 0.01 0.01
0.00 0.00 0.00 0.01 0.02 0.03 0.03 0.05 0.06 0.07 0.10 0.13 0.15 0.14 0.13 0.10 0.08 0.08 0.06 0.06 0.07 0.07 0.05 0.04 0.04 0.03 0.01 0.00 0.00 0.01 0.02 0.02 0.01 0.00 0.00 0.00 0.00 0.00 0.00 0.00 0.01 0.01 0.01
0.00 0.00 0.00 0.01 0.01 0.02 0.03 0.04 0.04 0.06 0.08 0.11 0.14 0.15 0.16 0.13 0.11 0.10 0.07 0.06 0.05 0.04 0.03 0.03 0.03 0.02 0.00 0.00 0.00 0.00 0.02 0.02 0.01 0.01 0.00 0.00 0.00 0.00 0.00 0.00 0.00 0.00 0.00
0.00 0.00 0.00 0.01 0.01 0.01 0.01 0.02 0.04 0.06 0.09 0.10 0.12 0.14 0.14 0.12 0.11 0.11 0.10 0.08 0.06 0.05 0.04 0.03 0.03 0.02 0.00 0.00 0.00 0.00 0.01 0.01 0.02 0.01 0.00 0.00 0.00 0.00 0.00 0.00 0.00 0.00 0.00
0.00 0.00 0.01 0.02 0.02 0.02 0.02 0.02 0.03 0.06 0.10 0.09 0.09 0.10 0.11 0.09 0.09 0.10 0.09 0.09 0.08 0.06 0.05 0.04 0.03 0.02 0.00 0.00 0.00 0.00 0.00 0.00 0.01 0.01 0.00 0.00 0.00 0.00 0.00 0.00 0.00 0.00 0.00
0.00 0.01 0.01 0.02 0.04 0.04 0.03 0.02 0.03 0.06 0.09 0.10 0.11 0.10 0.09 0.10 0.12 0.10 0.07 0.07 0.07 0.06 0.04 0.03 0.02 0.02 0.00 0.00 0.00 0.00 0.00 0.00 0.01 0.00 0.00 0.00 0.00 0.00 0.00 0.00 0.00 0.00 0.00
0.01 0.02 0.03 0.04 0.06 0.08 0.08 0.04 0.03 0.05 0.09 0.12 0.13 0.12 0.10 0.10 0.10 0.10 0.07 0.05 0.05 0.05 0.04 0.03 0.03 0.02 0.01 0.00 0.00 0.00 0.00 0.00 0.00 0.00 0.00 0.00 0.00 0.00 0.00 0.00 0.00 0.00 0.00
0.03 0.04 0.06 0.09 0.11 0.13 0.14 0.10 0.05 0.05 0.08 0.12 0.13 0.12 0.11 0.10 0.10 0.09 0.07 0.06 0.06 0.04 0.04 0.03 0.02 0.01 0.01 0.00 0.00 0.00 0.00 0.00 0.00 0.00 0.00 0.00 0.00 0.00 0.00 0.00 0.00 0.00 0.00
0.04 0.06 0.08 0.12 0.13 0.13 0.13 0.13 0.10 0.07 0.08 0.11 0.12 0.12 0.11 0.11 0.09 0.09 0.06 0.02 0.02 0.01 0.01 0.01 0.01 0.00 0.00 0.00 0.00 0.00 0.00 0.00 0.00 0.00 0.00 0.00 0.00 0.00 0.00 0.00 0.00 0.00 0.00
MSLP
1005.48 1005.60 1005.70 1005.79 1005.90 1006.06 1006.29 1006.60 1007.00 1007.44 1007.86 1008.23 1008.49 1008.61 1008.60 1008.49 1008.32 1008.16 1008.06 1008.08 1008.22 1008.48 1008.84 1009.25 1009.68 1010.10 1010.47 1010.81 1011.12 1011.42 1011.72 1012.00 1012.26 1012.46 1012.56 1012.54 1012.37 1012.05 1011.61 1011.11 1010.60 1010.16 1009.84
1006.29 1006.46 1006.57 1006.64 1006.68 1006.73 1006.84 1007.03 1007.31 1007.65 1008.00 1008.31 1008.53 1008.62 1008.58 1008.43 1008.21 1007.99 1007.84 1007.80 1007.90 1008.14 1008.49 1008.91 1009.35 1009.78 1010.17 1010.53 1010.85 1011.16 1011.47 1011.78 1012.07 1012.32 1012.48 1012.51 1012.39 1012.12 1011.70 1011.19 1010.66 1010.17 1009.79
1007.11 1007.35 1007.48 1007.52 1007.50 1007.45 1007.43 1007.49 1007.63 1007.86 1008.12 1008.36 1008.53 1008.58 1008.51 1008.32 1008.06 1007.80 1007.59 1007.51 1007.56 1007.77 1008.10 1008.51 1008.96 1009.40 1009.80 1010.16 1010.49 1010.80 1011.11 1011.43 1011.74 1012.02 1012.23 1012.33 1012.28 1012.06 1011.70 1011.23 1010.71 1010.22 1009.81
1007.80 1008.08 1008.24 1008.26 1008.19 1008.05 1007.93 1007.86 1007.89 1008.00 1008.17 1008.33 1008.44 1008.45 1008.34 1008.12 1007.82 1007.51 1007.26 1007.13 1007.14 1007.31 1007.62 1008.02 1008.46 1008.90 1009.31 1009.68 1010.01 1010.32 1010.64 1010.96 1011.29 1011.61 1011.86 1012.02 1012.03 1011.90 1011.61 1011.20 1010.74 1010.27 1009.87
1008.22 1008.53 1008.70 1008.73 1008.62 1008.44 1008.24 1008.08 1008.01 1008.04 1008.12 1008.22 1008.27 1008.24 1008.09 1007.82 1007.48 1007.13 1006.83 1006.65 1006.61 1006.74 1007.01 1007.39 1007.83 1008.28 1008.71 1009.09 1009.44 1009.76 1010.09 1010.42 1010.77 1011.11 1011.40 1011.62 1011.71 1011.66 1011.46 1011.13 1010.74 1010.33 1009.96
1008.33 1008.64 1008.83 1008.86 1008.75 1008.55 1008.32 1008.13 1008.01 1007.97 1007.99 1008.04 1008.05 1007.97 1007.77 1007.47 1007.08 1006.68 1006.32 1006.07 1005.97 1006.05 1006.28 1006.64 1007.08 1007.54 1007.99 1008.40 1008.78 1009.14 1009.48 1009.84 1010.21 1010.58 1010.91 1011.18 1011.34 1011.37 1011.26 1011.03 1010.72 1010.38 1010.05
1008.15 1008.45 1008.64 1008.69 1008.61 1008.44 1008.22 1008.03 1007.91 1007.85 1007.85 1007.86 1007.83 1007.71 1007.47 1007.11 1006.67 1006.20 1005.77 1005.45 1005.28 1005.30 1005.48 1005.82 1006.25 1006.72 1007.20 1007.66 1008.08 1008.48 1008.87 1009.27 1009.67 1010.07 1010.44 1010.75 1010.97 1011.08 1011.05 1010.91 1010.68 1010.41 1010.14
1007.79 1008.04 1008.23 1008.31 1008.28 1008.17 1008.02 1007.88 1007.79 1007.75 1007.75 1007.75 1007.69 1007.53 1007.25 1006.84 1006.33 1005.79 1005.29 1004.88 1004.64 1004.58 1004.71 1005.01 1005.43 1005.92 1006.43 1006.93 1007.41 1007.86 1008.30 1008.74 1009.18 1009.61 1010.01 1010.36 1010.64 1010.80 1010.85 1010.79 1010.64 1010.44 1010.22
1007.35 1007.56 1007.75 1007.86 1007.90 1007.86 1007.80 1007.75 1007.72 1007.73 1007.76 1007.76 1007.69 1007.50 1007.18 1006.72 1006.15 1005.54 1004.96 1004.48 1004.16 1004.03 1004.10 1004.35 1004.75 1005.24 1005.77 1006.31 1006.83 1007.34 1007.83 1008.31 1008.78 1009.24 1009.67 1010.05 1010.36 1010.58 1010.69 1010.69 1010.61 1010.47 1010.30
1006.96 1007.13 1007.31 1007.46 1007.56 1007.61 1007.65 1007.69 1007.75 1007.83 1007.89 1007.91 1007.84 1007.64 1007.29 1006.79 1006.18 1005.52 1004.89 1004.34 1003.95 1003.75 1003.76 1003.97 1004.33 1004.80 1005.33 1005.89 1006.45 1006.99 1007.51 1008.02 1008.52 1008.99 1009.44 1009.85 1010.18 1010.43 1010.59 1010.65 1010.63 1010.54 1010.42
1006.69 1006.82 1006.99 1007.16 1007.32 1007.46 1007.59 1007.73 1007.87 1008.01 1008.13 1008.18 1008.12 1007.93 1007.57 1007.07 1006.45 1005.78 1005.12 1004.54 1004.11 1003.87 1003.82 1003.97 1004.28 1004.72 1005.23 1005.77 1006.33 1006.88 1007.41 1007.93 1008.43 1008.91 1009.37 1009.78 1010.12 1010.40 1010.59 1010.69 1010.71 1010.67 1010.59
1006.56 1006.65 1006.81 1006.99 1007.19 1007.38 1007.59 1007.80 1008.02 1008.23 1008.39 1008.48 1008.46 1008.30 1007.98 1007.51 1006.93 1006.29 1005.65 1005.08 1004.64 1004.37 1004.29 1004.39 1004.64 1005.02 1005.47 1005.98 1006.50 1007.02 1007.54 1008.04 1008.53 1009.01 1009.45 1009.85 1010.21 1010.49 1010.70 1010.83 1010.89 1010.89 1010.84
1006.54 1006.59 1006.72 1006.89 1007.10 1007.32 1007.57 1007.84 1008.11 1008.37 1008.58 1008.73 1008.76 1008.66 1008.41 1008.02 1007.53 1006.97 1006.41 1005.90 1005.49 1005.23 1005.12 1005.18 1005.37 1005.67 1006.06 1006.49 1006.95 1007.42 1007.89 1008.36 1008.82 1009.27 1009.70 1010.09 1010.43 1010.72 1010.93 1011.08 1011.16 1011.19 1011.17
1006.57 1006.57 1006.65 1006.79 1006.97 1007.20 1007.46 1007.75 1008.06 1008.35 1008.62 1008.82 1008.92 1008.91 1008.77 1008.51 1008.15 1007.72 1007.29 1006.88 1006.55 1006.32 1006.21 1006.23 1006.36 1006.59 1006.88 1007.23 1007.61 1008.01 1008.42 1008.84 1009.27 1009.69 1010.09 1010.46 1010.79 1011.06 1011.28 1011.42 1011.52 1011.55 1011.55
1006.59 1006.53 1006.54 1006.61 1006.75 1006.94 1007.19 1007.48 1007.80 1008.12 1008.43 1008.70 1008.89 1008.99 1008.99 1008.88 1008.69 1008.44 1008.15 1007.88 1007.65 1007.48 1007.39 1007.39 1007.46 1007.61 1007.82 1008.08 1008.37 1008.70 1009.05 1009.42 1009.81 1010.20 1010.58 1010.93 1011.24 1011.50 1011.70 1011.83 1011.92 1011.95 1011.94
1006.56 1006.41 1006.34 1006.33 1006.40 1006.54 1006.74 1007.01 1007.33 1007.67 1008.02 1008.35 1008.64 1008.87 1009.01 1009.08 1009.07 1009.00 1008.89 1008.77 1008.65 1008.55 1008.49 1008.48 1008.52 1008.60 1008.73 1008.91 1009.13 1009.39 1009.69 1010.03 1010.39 1010.76 1011.11 1011.45 1011.74 1011.98 1012.15 1012.26 1012.31 1012.32 1012.29
1006.47 1006.23 1006.05 1005.95 1005.93 1006.00 1006.16 1006.39 1006.69 1007.04 1007.42 1007.82 1008.20 1008.54 1008.84 1009.07 1009.24 1009.35 1009.41 1009.43 1009.43 1009.41 1009.39 1009.38 1009.39 1009.42 1009.50 1009.61 1009.78 1010.00 1010.27 1010.59 1010.93 1011.29 1011.64 1011.96 1012.23 1012.44 1012.57 1012.64 1012.65 1012.61 1012.54
1006.35 1006.01 1005.73 1005.53 1005.42 1005.41 1005.50 1005.69 1005.97 1006.32 1006.72 1007.16 1007.62 1008.06 1008.48 1008.86 1009.19 1009.46 1009.66 1009.81 1009.91 1009.96 1009.98 1009.98 1009.98 1009.99 1010.04 1010.12 1010.26 1010.47 1010.73 1011.05 1011.40 1011.76 1012.10 1012.41 1012.66 1012.83 1012.93 1012.94 1012.90 1012.80 1012.67
1006.25 1005.80 1005.43 1005.13 1004.94 1004.86 1004.89 1005.02 1005.27 1005.60 1006.01 1006.47 1006.98 1007.50 1008.01 1008.50 1008.94 1009.33 1009.65 1009.90 1010.08 1010.20 1010.26 1010.28 1010.29 1010.30 1010.35 1010.43 1010.58 1010.79 1011.07 1011.40 1011.76 1012.13 1012.47 1012.77 1012.99 1013.13 1013.18 1013.14 1013.03 1012.88 1012.69
1006.20 1005.67 1005.21 1004.84 1004.57 1004.42 1004.38 1004.47 1004.67 1004.97 1005.36 1005.83 1006.35 1006.91 1007.47 1008.03 1008.55 1009.02 1009.42 1009.75 1010.00 1010.17 1010.28 1010.34 1010.38 1010.41 1010.48 1010.59 1010.76 1011.00 1011.30 1011.65 1012.02 1012.40 1012.74 1013.02 1013.22 1013.32 1013.32 1013.23 1013.07 1012.86 1012.62
1006.21 1005.62 1005.10 1004.67 1004.35 1004.14 1004.05 1004.07 1004.22 1004.48 1004.83 1005.27 1005.78 1006.34 1006.92 1007.50 1008.07 1008.58 1009.04 1009.42 1009.73 1009.96 1010.12 1010.23 1010.32 1010.40 1010.51 1010.66 1010.87 1011.14 1011.46 1011.83 1012.21 1012.58 1012.90 1013.16 1013.33 1013.40 1013.37 1013.24 1013.05 1012.80 1012.52
1006.27 1005.64 1005.09 1004.63 1004.27 1004.01 1003.87 1003.84 1003.93 1004.13 1004.42 1004.81 1005.28 1005.81 1006.37 1006.96 1007.53 1008.07 1008.57 1009.00 1009.36 1009.65 1009.87 1010.05 1010.20 1010.35 1010.52 1010.72 1010.96 1011.26 1011.59 1011.96 1012.33 1012.68 1012.97 1013.20 1013.34 1013.38 1013.33 1013.19 1012.98 1012.73 1012.45
1006.31 1005.69 1005.14 1004.67 1004.29 1004.01 1003.82 1003.74 1003.76 1003.89 1004.12 1004.44 1004.84 1005.32 1005.85 1006.40 1006.97 1007.53 1008.05 1008.52 1008.94 1009.30 1009.61 1009.87 1010.10 1010.32 1010.55 1010.80 1011.08 1011.38 1011.72 1012.06 1012.40 1012.70 1012.96 1013.15 1013.26 1013.29 1013.23 1013.10 1012.91 1012.68 1012.42
1006.29 1005.70 1005.18 1004.73 1004.35 1004.05 1003.83 1003.70 1003.66 1003.72 1003.87 1004.11 1004.45 1004.86 1005.33 1005.85 1006.41 1006.96 1007.51 1008.03 1008.52 1008.96 1009.36 1009.71 1010.03 1010.33 1010.63 1010.92 1011.21 1011.52 1011.83 1012.13 1012.41 1012.66 1012.86 1013.01 1013.09 1013.11 1013.06 1012.97 1012.82 1012.65 1012.45
1006.16 1005.63 1005.16 1004.74 1004.38 1004.07 1003.83 1003.66 1003.57 1003.56 1003.64 1003.80 1004.06 1004.40 1004.82 1005.30 1005.83 1006.39 1006.96 1007.54 1008.09 1008.62 1009.11 1009.56 1009.98 1010.36 1010.71 1011.04 1011.34 1011.63 1011.89 1012.13 1012.34 1012.52 1012.67 1012.77 1012.83 1012.86 1012.84 1012.79 1012.72 1012.62 1012.51
1005.89 1005.43 1005.02 1004.65 1004.31 1004.02 1003.77 1003.57 1003.44 1003.37 1003.38 1003.48 1003.66 1003.94 1004.29 1004.73 1005.24 1005.79 1006.39 1007.01 1007.63 1008.24 1008.83 1009.38 1009.88 1010.34 1010.75 1011.10 1011.41 1011.66 1011.87 1012.05 1012.19 1012.29 1012.38 1012.44 1012.49 1012.52 1012.55 1012.56 1012.57 1012.56 1012.54
Thickness
5826 5827 5826 5826 5822 5818 5816 5813 5808 5804 5800 5795 5791 5788 5786 5788 5790 5792 5791 5789 5785 5782 5778 5773 5770 5765 5761 5760 5757 5755 5751 5747 5744 5739 5739 5745 5750 5752 5755 5757 5757 5759 5760
5807 5808 5808 5807 5805 5802 5801 5801 5796 5792 5790 5787 5785 5783 5782 5782 5784 5785 5785 5783 5780 5776 5772 5767 5763 5760 5756 5753 5750 5747 5744 5742 5739 5732 5726 5726 5733 5742 5750 5751 5751 5753 5754
5791 5790 5789 5788 5788 5787 5787 5787 5784 5782 5780 5779 5777 5775 5773 5773 5774 5774 5775 5775 5773 5768 5764 5761 5758 5754 5751 5748 5746 5743 5738 5734 5733 5731 5723 5716 5716 5725 5735 5741 5744 5745 5745
5780 5778 5776 5774 5774 5775 5776 5775 5773 5771 5770 5769 5766 5763 5760 5760 5764 5765 5765 5766 5765 5762 5758 5755 5753 5749 5746 5744 5742 5741 5736 5731 5726 5725 5723 5720 5718 5713 5716 5727 5734 5737 5738
5771 5769 5767 5765 5765 5766 5766 5765 5763 5761 5760 5759 5757 5755 5753 5754 5756 5756 5756 5756 5756 5755 5753 5750 5747 5745 5742 5740 5737 5735 5732 5728 5723 5720 5717 5714 5712 5711 5706 5708 5717 5723 5729
5766 5764 5762 5760 5757 5757 5756 5755 5752 5750 5750 5749 5748 5746 5744 5744 5744 5744 5744 5746 5746 5746 5746 5745 5741 5740 5737 5735 5732 5729 5726 5722 5720 5717 5714 5709 5706 5705 5704 5703 5706 5709 5717
5761 5756 5753 5750 5748 5747 5746 5745 5743 5740 5740 5739 5738 5738 5736 5735 5735 5734 5735 5735 5735 5736 5737 5736 5733 5732 5731 5729 5727 5723 5721 5718 5714 5712 5709 5707 5705 5705 5703 5700 5700 5702 5709
5756 5751 5748 5745 5743 5741 5739 5737 5734 5732 5731 5730 5729 5729 5728 5727 5727 5726 5725 5725 5725 5726 5727 5726 5725 5724 5723 5722 5720 5717 5714 5712 5709 5707 5704 5701 5700 5700 5699 5697 5695 5693 5698
5750 5747 5745 5742 5738 5735 5733 5730 5727 5724 5723 5722 5720 5719 5719 5717 5716 5716 5715 5715 5715 5715 5715 5714 5714 5714 5714 5713 5711 5708 5706 5704 5701 5700 5696 5693 5693 5694 5694 5694 5692 5687 5684
5745 5742 5739 5736 5733 5730 5727 5724 5721 5717 5715 5713 5711 5711 5709 5708 5706 5705 5703 5703 5702 5702 5702 5702 5701 5702 5702 5702 5700 5698 5696 5694 5692 5689 5687 5685 5685 5686 5687 5686 5686 5685 5681
5739 5736 5733 5731 5727 5724 5719 5715 5712 5709 5706 5704 5702 5699 5697 5696 5694 5692 5691 5690 5690 5689 5688 5687 5687 5688 5688 5688 5687 5686 5685 5683 5681 5680 5677 5675 5676 5675 5677 5677 5677 5677 5675
5735 5732 5728 5724 5719 5714 5709 5705 5702 5699 5696 5694 5691 5688 5685 5683 5680 5678 5677 5676 5675 5675 5674 5674 5674 5674 5674 5674 5674 5673 5672 5671 5669 5669 5667 5666 5666 5664 5665 5665 5666 5667 5668
5728 5725 5720 5715 5710 5705 5700 5696 5691 5688 5686 5683 5680 5676 5672 5669 5666 5664 5663 5661 5661 5661 5660 5659 5658 5658 5658 5660 5660 5661 5659 5658 5657 5657 5655 5654 5653 5652 5653 5655 5655 5656 5658
5722 5718 5712 5707 5702 5697 5691 5686 5682 5679 5675 5672 5668 5664 5660 5657 5654 5652 5650 5648 5647 5646 5644 5644 5643 5643 5644 5644 5646 5647 5647 5646 5645 5645 5644 5642 5641 5641 5642 5645 5644 5645 5646
5715 5711 5705 5700 5695 5689 5683 5679 5674 5670 5666 5662 5658 5654 5651 5648 5645 5643 5640 5638 5635 5633 5632 5630 5629 5629 5630 5630 5631 5633 5635 5634 5633 5634 5633 5632 5632 5632 5633 5634 5634 5634 5634
5707 5705 5701 5695 5689 5683 5677 5672 5667 5663 5659 5654 5650 5646 5643 5639 5636 5634 5631 5627 5624 5622 5620 5618 5617 5617 5617 5617 5620 5622 5623 5624 5624 5623 5624 5624 5624 5625 5625 5626 5626 5625 5624
5699 5696 5693 5689 5684 5678 5672 5666 5661 5657 5652 5648 5644 5641 5637 5633 5629 5626 5622 5618 5615 5612 5610 5608 5608 5606 5605 5607 5610 5612 5614 5615 5616 5616 5616 5619 5616 5615 5616 5618 5620 5619 5617
5689 5687 5686 5683 5680 5675 5669 5663 5657 5652 5648 5643 5640 5637 5632 5628 5624 5620 5616 5613 5610 5607 5605 5603 5602 5600 5599 5600 5602 5604 5608 5609 5609 5609 5609 5608 5606 5606 5607 5611 5612 5612 5610
5682 5682 5682 5679 5675 5670 5665 5658 5653 5649 5644 5641 5637 5634 5629 5625 5620 5616 5612 5610 5606 5603 5601 5599 5598 5596 5594 5594 5596 5597 5602 5603 5602 5602 5601 5601 5599 5598 5600 5603 5602 5601 5600
5676 5676 5676 5675 5670 5666 5661 5654 5649 5645 5641 5639 5635 5632 5627 5622 5618 5614 5610 5607 5604 5601 5599 5597 5595 5593 5591 5590 5591 5593 5598 5598 5597 5594 5593 5592 5592 5592 5591 5593 5593 5590 5589
5663 5665 5666 5665 5664 5662 5656 5649 5646 5643 5641 5639 5634 5630 5625 5621 5617 5612 5608 5605 5602 5600 5597 5594 5592 5591 5589 5587 5588 5590 5593 5595 5596 5593 5590 5587 5586 5586 5586 5585 5585 5582 5579
5649 5652 5651 5654 5655 5655 5651 5645 5643 5642 5640 5636 5631 5627 5623 5620 5616 5610 5607 5603 5600 5597 5594 5592 5590 5588 5587 5586 5585 5587 5588 5591 5592 5590 5588 5584 5583 5582 5581 5581 5579 5577 5575
5631 5635 5638 5642 5645 5645 5646 5642 5641 5639 5636 5632 5628 5624 5620 5617 5614 5609 5605 5601 5598 5596 5594 5591 5589 5588 5586 5583 5583 5584 5586 5587 5587 5585 5583 5582 5579 5578 5577 5576 5575 5572 5572
5612 5616 5621 5626 5631 5634 5635 5638 5638 5636 5632 5628 5624 5620 5617 5614 5611 5607 5605 5602 5599 5597 5595 5593 5592 5590 5587 5584 5583 5583 5583 5582 5582 5581 5580 5578 5577 5575 5573 5574 5574 5571 5566
5594 5598 5602 5607 5615 5622 5625 5628 5630 5630 5626 5623 5620 5617 5615 5612 5608 5606 5604 5603 5602 5601 5598 5597 5596 5592 5588 5585 5584 5585 5583 5582 5579 5578 5578 5577 5578 5577 5576 5575 5572 5567 5562
5579 5583 5587 5592 5599 5606 5613 5619 5620 5622 5621 5618 5617 5615 5613 5610 5607 5604 5600 5595 5597 5595 5595 5596 5597 5595 5590 5583 5581 5579 5577 5576 5575 5575 5576 5578 5578 5577 5575 5571 5567 5562 5557